Regional Weather Roundup
Issued by NWS State College, PA

Home | Current Version | Previous Version | Text Only | Print | Product List | Glossary Off
Versions: 1 2 3 4 5 6 7 8 9 10 11 12 13 14 15 16 17 18 19 20 21 22 23 24 25 26 27 28 29 30 31 32 33 34 35 36 37 38 39 40 41 42 43 44 45 46 47 48 49 50

000
ASUS41 KCTP 282310
RWRCTP

REGIONAL WEATHER ROUNDUP
NATIONAL WEATHER SERVICE STATE COLLEGE PA
700 PM EDT TUE MAR 28 2017

Note: "fair" indicates few or no clouds below 12,000 feet with no
significant weather and/or obstructions to visibility.

* = STATION THAT DOES NOT REPORT PRECIPITATION /E.G. RAIN...SNOW...ETC/
    THUNDER OR FOG.

PAZ002>004-007>009-013>016-020>023-029>032-290000-
WESTERN PENNSYLVANIA

CITY           SKY/WX    TMP DP  RH WIND       PRES   REMARKS
ERIE           CLOUDY    41  40  96 CALM      30.07R FOG
MEADVILLE      CLOUDY    44  41  89 N6        30.03R FOG
FRANKLIN*      CLOUDY    46  41  81 NW9       30.03R
NEW CASTLE     CLOUDY    47  43  86 N8        30.05
BEAVER COUNTY  CLOUDY    48  43  81 N7        30.02R
BUTLER*        CLOUDY    54  45  71 NW9       30.01R
PITTSBURGH INT MOCLDY    55  48  77 NW17      29.99R
PITTSBURGH     CLOUDY    55  46  71 NW13G21   29.97R
INDIANA*       CLOUDY    55  52  88 NW7       29.98R
LATROBE        CLOUDY    55  55 100 NW3       29.97R
WASHINGTON CO* CLOUDY    55  46  71 N8        30.01R
$$

PAZ004>006-010>012-017>019-024>028-033>037-041-042-045-046-049>053-290000-
CENTRAL PENNSYLVANIA

CITY           SKY/WX    TMP DP  RH WIND       PRES   REMARKS
BRADFORD       CLOUDY    48  46  93 NW8       29.97R
DUBOIS         CLOUDY    54  47  77 N12       29.94R
CLEARFIELD       N/A    N/A N/A N/A MISG      29.94R
JOHNSTOWN      CLOUDY    53  52  96 NW8       29.93R
ALTOONA        CLOUDY    59  54  83 N9        29.92R
STATE COLLEGE  RAIN      55  54  94 NW5       29.92R FOG
WILLIAMSPORT   CLOUDY    57  54  89 W5        29.90R
SELINSGROVE    CLOUDY    57  56  96 CALM      29.90R FOG
FT INDIANTOWN  CLOUDY    54  54 100 CALM      29.89R
CAPITAL CITY   CLOUDY    57  53  86 CALM      29.89R
HARRISBURG     CLOUDY    55  54  96 W5        29.88R FOG
YORK           CLOUDY    57  56  96 CALM      29.88R
$$

PAZ038>040-043-044-047-048-054-055-060>062-067>071-290000-
EASTERN PENNSYLVANIA

CITY           SKY/WX    TMP DP  RH WIND       PRES   REMARKS
SCRANTON       LGT RAIN  49  48  97 CALM      29.90R
MOUNT POCONO   LGT RAIN  45  45 100 NW6       29.87R
ALLENTOWN      LGT RAIN  50  47  89 N5        29.89R FOG
QUAKERTOWN*    CLOUDY    48  48 100 CALM      29.89R
READING        LGT RAIN  51  51 100 NE3       29.89R FOG
LANCASTER      LGT RAIN  54  54 100 NW3       29.88R FOG
COATESVILLE    FOG       52  52 100 N5        29.89R VSB 3/4
POTTSTOWN      LGT RAIN  49  48  97 NE3       29.89S
BLUE BELL      CLOUDY    46  46 100 E3        29.87R
DOYLESTOWN     LGT RAIN  46  46 100 NE6       29.87S
WILLOW GROVE   NOT AVBL
NORTH PHILA    CLOUDY    49  46  90 N10       29.89R
PHILADELPHIA   DRIZZLE   51  49  92 N10G23    29.88R FOG
$$




USA.gov is the U.S. government's official web portal to all federal, state and local government web resources and services.